Time,TemperatureF,DewpointF,PressureIn,WindDirection,WindDirectionDegrees,WindSpeedMPH,WindSpeedGustMPH,Humidity,HourlyPrecipIn,Conditions,Clouds,dailyrainin,SoftwareType,DateUTC
2013-03-22 00:02:00,30.0,27.0,29.90,ENE,70,10.0,-999.0,86,-99.99,,,-99.99,,2013-03-22 05:02:00,
2013-03-22 00:12:00,30.0,27.0,29.90,ENE,70,10.0,-999.0,86,-99.99,,,-99.99,,2013-03-22 05:12:00,
2013-03-22 00:22:00,30.0,27.0,29.92,ENE,60,9.0,-999.0,86,-99.99,,,-99.99,,2013-03-22 05:22:00,
2013-03-22 00:32:00,30.0,27.0,29.91,ENE,60,13.0,-999.0,86,-99.99,,,-99.99,,2013-03-22 05:32:00,
2013-03-22 00:42:00,30.0,27.0,29.91,ENE,60,13.0,-999.0,86,-99.99,,,-99.99,,2013-03-22 05:42:00,
2013-03-22 00:52:00,30.0,27.0,29.92,ENE,60,13.0,-999.0,86,-99.99,,,-99.99,,2013-03-22 05:52:00,
2013-03-22 01:02:00,30.0,27.0,29.92,ENE,60,13.0,-999.0,86,-99.99,,,-99.99,,2013-03-22 06:02:00,
2013-03-22 01:12:00,30.0,27.0,29.93,NE,50,9.0,-999.0,86,-99.99,,,-99.99,,2013-03-22 06:12:00,
2013-03-22 01:22:00,30.0,27.0,29.93,ENE,60,8.0,-999.0,86,-99.99,,,-99.99,,2013-03-22 06:22:00,
2013-03-22 01:32:00,30.0,27.0,29.94,NE,40,9.0,-999.0,86,-99.99,,,-99.99,,2013-03-22 06:32:00,
2013-03-22 01:42:00,30.0,27.0,29.94,NE,40,9.0,-999.0,86,-99.99,,,-99.99,,2013-03-22 06:42:00,
2013-03-22 01:52:00,30.0,27.0,29.94,NE,50,8.0,-999.0,86,-99.99,,,-99.99,,2013-03-22 06:52:00,
2013-03-22 02:02:00,30.0,27.0,29.94,NE,50,8.0,-999.0,86,-99.99,,,-99.99,,2013-03-22 07:02:00,
2013-03-22 02:12:00,30.0,28.0,29.95,NE,40,5.0,-999.0,92,-99.99,,,-99.99,,2013-03-22 07:12:00,
2013-03-22 02:22:00,28.0,28.0,29.96,NNE,20,3.0,-999.0,100,-99.99,,,-99.99,,2013-03-22 07:22:00,
2013-03-22 02:32:00,28.0,28.0,29.96,NE,40,3.0,-999.0,100,-99.99,,,-99.99,,2013-03-22 07:32:00,
2013-03-22 02:42:00,28.0,28.0,29.96,NE,40,5.0,-999.0,100,-99.99,,,-99.99,,2013-03-22 07:42:00,
2013-03-22 02:52:00,28.0,28.0,29.96,NNE,30,5.0,-999.0,100,-99.99,,,-99.99,,2013-03-22 07:52:00,
2013-03-22 03:03:00,28.0,28.0,29.96,NNE,30,5.0,-999.0,100,-99.99,,,-99.99,,2013-03-22 08:03:00,
2013-03-22 03:12:00,28.0,28.0,29.96,NNE,30,5.0,-999.0,100,-99.99,,,-99.99,,2013-03-22 08:12:00,
2013-03-22 03:22:00,28.0,28.0,29.95,NE,50,6.0,-999.0,100,-99.99,,,-99.99,,2013-03-22 08:22:00,
2013-03-22 03:32:00,28.0,28.0,29.95,NE,40,5.0,-999.0,100,-99.99,,,-99.99,,2013-03-22 08:32:00,
2013-03-22 03:42:00,28.0,28.0,29.95,NE,40,5.0,-999.0,100,-99.99,,,-99.99,,2013-03-22 08:42:00,
2013-03-22 03:52:00,28.0,28.0,29.95,NE,50,5.0,-999.0,100,-99.99,,,-99.99,,2013-03-22 08:52:00,
2013-03-22 04:02:00,28.0,28.0,29.95,NE,50,5.0,-999.0,100,-99.99,,,-99.99,,2013-03-22 09:02:00,
2013-03-22 04:12:00,28.0,28.0,29.95,NE,50,5.0,-999.0,100,-99.99,,,-99.99,,2013-03-22 09:12:00,
2013-03-22 04:22:00,28.0,27.0,29.93,NE,40,9.0,-999.0,92,-99.99,,,-99.99,,2013-03-22 09:22:00,
2013-03-22 04:32:00,28.0,27.0,29.92,NE,40,8.0,-999.0,92,-99.99,,,-99.99,,2013-03-22 09:32:00,
2013-03-22 04:42:00,28.0,27.0,29.92,NE,40,8.0,-999.0,92,-99.99,,,-99.99,,2013-03-22 09:42:00,
2013-03-22 04:53:00,28.0,27.0,29.92,NE,40,7.0,-999.0,92,-99.99,,,-99.99,,2013-03-22 09:53:00,
2013-03-22 05:03:00,28.0,27.0,29.92,NE,40,7.0,-999.0,92,-99.99,,,-99.99,,2013-03-22 10:03:00,
2013-03-22 05:12:00,28.0,27.0,29.92,NE,40,7.0,-999.0,92,-99.99,,,-99.99,,2013-03-22 10:12:00,
2013-03-22 05:22:00,28.0,27.0,29.92,ENE,60,8.0,-999.0,92,-99.99,,,-99.99,,2013-03-22 10:22:00,
2013-03-22 05:32:00,28.0,27.0,29.92,ENE,60,7.0,-999.0,92,-99.99,,,-99.99,,2013-03-22 10:32:00,
2013-03-22 05:42:00,28.0,27.0,29.92,ENE,60,7.0,-999.0,92,-99.99,,,-99.99,,2013-03-22 10:42:00,
2013-03-22 05:52:00,28.0,27.0,29.92,ENE,60,6.0,-999.0,92,-99.99,,,-99.99,,2013-03-22 10:52:00,
2013-03-22 06:03:00,28.0,27.0,29.92,ENE,60,6.0,-999.0,92,-99.99,,,-99.99,,2013-03-22 11:03:00,
2013-03-22 06:12:00,28.0,27.0,29.92,ENE,60,6.0,-999.0,92,-99.99,,,-99.99,,2013-03-22 11:12:00,
2013-03-22 06:22:00,28.0,27.0,29.93,NE,50,7.0,-999.0,92,-99.99,,,-99.99,,2013-03-22 11:22:00,
2013-03-22 06:32:00,28.0,27.0,29.94,NNE,30,6.0,-999.0,92,-99.99,,,-99.99,,2013-03-22 11:32:00,
2013-03-22 06:42:00,28.0,27.0,29.94,NNE,30,6.0,-999.0,92,-99.99,,,-99.99,,2013-03-22 11:42:00,
2013-03-22 06:52:00,28.0,27.0,29.93,NE,50,8.0,-999.0,92,-99.99,,,-99.99,,2013-03-22 11:52:00,
2013-03-22 07:02:00,28.0,27.0,29.93,NE,50,8.0,-999.0,92,-99.99,,,-99.99,,2013-03-22 12:02:00,
2013-03-22 07:12:00,28.0,27.0,29.93,NE,50,8.0,-999.0,92,-99.99,,,-99.99,,2013-03-22 12:12:00,
2013-03-22 07:22:00,27.0,27.0,29.93,ENE,70,5.0,-999.0,100,-99.99,,,-99.99,,2013-03-22 12:22:00,
2013-03-22 07:32:00,28.0,27.0,29.95,NE,40,5.0,-999.0,92,-99.99,,,-99.99,,2013-03-22 12:32:00,
2013-03-22 07:42:00,28.0,27.0,29.95,NE,40,5.0,-999.0,92,-99.99,,,-99.99,,2013-03-22 12:42:00,
2013-03-22 07:52:00,28.0,27.0,29.94,ENE,70,5.0,-999.0,92,-99.99,,,-99.99,,2013-03-22 12:52:00,
2013-03-22 08:02:00,28.0,27.0,29.94,ENE,70,5.0,-999.0,92,-99.99,,,-99.99,,2013-03-22 13:02:00,
2013-03-22 08:12:00,28.0,27.0,29.94,ENE,70,5.0,-999.0,92,-99.99,,,-99.99,,2013-03-22 13:12:00,
2013-03-22 08:22:00,28.0,27.0,29.96,ENE,70,3.0,-999.0,92,-99.99,,,-99.99,,2013-03-22 13:22:00,
2013-03-22 08:32:00,28.0,27.0,29.95,ENE,70,6.0,-999.0,92,-99.99,,,-99.99,,2013-03-22 13:32:00,
2013-03-22 08:42:00,28.0,27.0,29.95,ENE,70,6.0,-999.0,92,-99.99,,,-99.99,,2013-03-22 13:42:00,
2013-03-22 08:52:00,28.0,27.0,29.95,East,80,5.0,-999.0,92,-99.99,,,-99.99,,2013-03-22 13:52:00,
2013-03-22 09:02:00,28.0,27.0,29.95,East,80,5.0,-999.0,92,-99.99,,,-99.99,,2013-03-22 14:02:00,
2013-03-22 09:12:00,28.0,27.0,29.95,East,80,5.0,-999.0,92,-99.99,,,-99.99,,2013-03-22 14:12:00,
2013-03-22 09:22:00,28.0,27.0,29.97,North,0,0.0,-999.0,92,-99.99,,,-99.99,,2013-03-22 14:22:00,
2013-03-22 09:32:00,30.0,27.0,29.96,North,0,0.0,-999.0,86,-99.99,,,-99.99,,2013-03-22 14:32:00,
2013-03-22 09:43:00,30.0,27.0,29.96,North,0,0.0,-999.0,86,-99.99,,,-99.99,,2013-03-22 14:43:00,
2013-03-22 09:52:00,30.0,27.0,29.95,ENE,70,3.0,-999.0,86,-99.99,,,-99.99,,2013-03-22 14:52:00,
2013-03-22 10:02:00,30.0,27.0,29.95,ENE,70,3.0,-999.0,86,-99.99,,,-99.99,,2013-03-22 15:02:00,
2013-03-22 10:12:00,30.0,27.0,29.95,ENE,70,3.0,-999.0,86,-99.99,,,-99.99,,2013-03-22 15:12:00,
2013-03-22 10:22:00,30.0,27.0,29.97,North,0,0.0,-999.0,86,-99.99,,,-99.99,,2013-03-22 15:22:00,
2013-03-22 10:32:00,30.0,27.0,29.98,North,0,0.0,-999.0,86,-99.99,,,-99.99,,2013-03-22 15:32:00,
2013-03-22 10:43:00,30.0,27.0,29.98,North,0,0.0,-999.0,86,-99.99,,,-99.99,,2013-03-22 15:43:00,
2013-03-22 10:53:00,30.0,27.0,29.98,North,0,0.0,-999.0,86,-99.99,,,-99.99,,2013-03-22 15:53:00,
2013-03-22 11:02:00,30.0,27.0,29.98,North,0,0.0,-999.0,86,-99.99,,,-99.99,,2013-03-22 16:02:00,
2013-03-22 11:13:00,30.0,27.0,29.98,North,0,0.0,-999.0,86,-99.99,,,-99.99,,2013-03-22 16:13:00,
2013-03-22 11:22:00,30.0,27.0,29.98,North,0,0.0,-999.0,86,-99.99,,,-99.99,,2013-03-22 16:22:00,
2013-03-22 11:32:00,30.0,27.0,29.98,North,0,0.0,-999.0,86,-99.99,,,-99.99,,2013-03-22 16:32:00,
2013-03-22 11:42:00,30.0,27.0,29.98,North,0,0.0,-999.0,86,-99.99,,,-99.99,,2013-03-22 16:42:00,
2013-03-22 11:52:00,30.0,28.0,29.98,North,0,0.0,-999.0,92,-99.99,,,-99.99,,2013-03-22 16:52:00,
2013-03-22 12:03:00,30.0,28.0,29.98,North,0,0.0,-999.0,92,-99.99,,,-99.99,,2013-03-22 17:03:00,
2013-03-22 12:12:00,30.0,28.0,29.98,North,0,0.0,-999.0,92,-99.99,,,-99.99,,2013-03-22 17:12:00,
2013-03-22 12:23:00,32.0,28.0,29.97,North,0,0.0,-999.0,86,-99.99,,,-99.99,,2013-03-22 17:23:00,
2013-03-22 12:32:00,34.0,28.0,29.97,North,0,0.0,-999.0,80,-99.99,,,-99.99,,2013-03-22 17:32:00,
2013-03-22 12:42:00,34.0,28.0,29.97,North,0,0.0,-999.0,80,-99.99,,,-99.99,,2013-03-22 17:42:00,
2013-03-22 12:53:00,36.0,30.0,29.95,NNE,20,3.0,-999.0,80,-99.99,,,-99.99,,2013-03-22 17:53:00,
2013-03-22 13:02:00,36.0,30.0,29.95,NNE,20,3.0,-999.0,80,-99.99,,,-99.99,,2013-03-22 18:02:00,
2013-03-22 13:12:00,36.0,30.0,29.95,NNE,20,3.0,-999.0,80,-99.99,,,-99.99,,2013-03-22 18:12:00,
2013-03-22 13:22:00,36.0,30.0,29.94,North,0,0.0,-999.0,80,-99.99,,,-99.99,,2013-03-22 18:22:00,
2013-03-22 13:32:00,36.0,30.0,29.95,NNW,340,3.0,-999.0,80,-99.99,,,-99.99,,2013-03-22 18:32:00,
2013-03-22 13:42:00,36.0,30.0,29.95,NNW,340,3.0,-999.0,80,-99.99,,,-99.99,,2013-03-22 18:42:00,
2013-03-22 13:52:00,36.0,30.0,29.95,North,0,0.0,-999.0,80,-99.99,,,-99.99,,2013-03-22 18:52:00,
2013-03-22 14:02:00,36.0,30.0,29.95,North,0,0.0,-999.0,80,-99.99,,,-99.99,,2013-03-22 19:02:00,
2013-03-22 14:12:00,36.0,30.0,29.95,North,0,0.0,-999.0,80,-99.99,,,-99.99,,2013-03-22 19:12:00,
2013-03-22 14:22:00,36.0,30.0,29.94,North,0,0.0,-999.0,80,-99.99,,,-99.99,,2013-03-22 19:22:00,
2013-03-22 14:32:00,37.0,30.0,29.94,North,0,0.0,-999.0,74,-99.99,,,-99.99,,2013-03-22 19:32:00,
2013-03-22 14:43:00,37.0,30.0,29.94,North,0,0.0,-999.0,74,-99.99,,,-99.99,,2013-03-22 19:43:00,
2013-03-22 14:52:00,37.0,30.0,29.93,NE,40,3.0,-999.0,74,-99.99,,,-99.99,,2013-03-22 19:52:00,
2013-03-22 15:02:00,37.0,30.0,29.93,NE,40,3.0,-999.0,74,-99.99,,,-99.99,,2013-03-22 20:02:00,
2013-03-22 15:12:00,37.0,30.0,29.93,NE,40,3.0,-999.0,74,-99.99,,,-99.99,,2013-03-22 20:12:00,
2013-03-22 15:22:00,39.0,32.0,29.92,ENE,70,7.0,-999.0,75,-99.99,,,-99.99,,2013-03-22 20:22:00,
2013-03-22 15:32:00,39.0,32.0,29.90,East,90,6.0,-999.0,75,-99.99,,,-99.99,,2013-03-22 20:32:00,
2013-03-22 15:43:00,39.0,32.0,29.90,East,90,6.0,-999.0,75,-99.99,,,-99.99,,2013-03-22 20:43:00,
2013-03-22 15:52:00,39.0,32.0,29.90,East,90,6.0,-999.0,75,-99.99,,,-99.99,,2013-03-22 20:52:00,
2013-03-22 16:03:00,39.0,32.0,29.90,East,90,6.0,-999.0,75,-99.99,,,-99.99,,2013-03-22 21:03:00,
2013-03-22 16:12:00,39.0,32.0,29.90,East,90,6.0,-999.0,75,-99.99,,,-99.99,,2013-03-22 21:12:00,
2013-03-22 16:22:00,37.0,30.0,29.92,East,90,3.0,-999.0,74,-99.99,,,-99.99,,2013-03-22 21:22:00,
2013-03-22 16:33:00,39.0,30.0,29.92,North,0,0.0,-999.0,69,-99.99,,,-99.99,,2013-03-22 21:33:00,
2013-03-22 16:43:00,39.0,30.0,29.92,North,0,0.0,-999.0,69,-99.99,,,-99.99,,2013-03-22 21:43:00,
2013-03-22 16:53:00,39.0,32.0,29.92,NNE,20,3.0,-999.0,75,-99.99,,,-99.99,,2013-03-22 21:53:00,
2013-03-22 17:03:00,39.0,32.0,29.92,NNE,20,3.0,-999.0,75,-99.99,,,-99.99,,2013-03-22 22:03:00,
2013-03-22 17:12:00,39.0,32.0,29.92,NNE,20,3.0,-999.0,75,-99.99,,,-99.99,,2013-03-22 22:12:00,
2013-03-22 17:23:00,39.0,32.0,29.92,ENE,70,7.0,-999.0,75,-99.99,,,-99.99,,2013-03-22 22:23:00,
2013-03-22 17:32:00,39.0,32.0,29.92,ENE,70,6.0,-999.0,75,-99.99,,,-99.99,,2013-03-22 22:32:00,
2013-03-22 17:43:00,39.0,32.0,29.92,ENE,70,6.0,-999.0,75,-99.99,,,-99.99,,2013-03-22 22:43:00,
2013-03-22 17:53:00,39.0,32.0,29.92,NE,50,9.0,-999.0,75,-99.99,,,-99.99,,2013-03-22 22:53:00,
2013-03-22 18:02:00,39.0,32.0,29.92,NE,50,9.0,-999.0,75,-99.99,,,-99.99,,2013-03-22 23:02:00,
2013-03-22 18:12:00,39.0,32.0,29.92,NE,50,9.0,-999.0,75,-99.99,,,-99.99,,2013-03-22 23:12:00,
2013-03-22 18:22:00,37.0,32.0,29.92,NE,50,9.0,-999.0,80,-99.99,,,-99.99,,2013-03-22 23:22:00,
2013-03-22 18:32:00,37.0,30.0,29.92,ENE,60,10.0,-999.0,74,-99.99,,,-99.99,,2013-03-22 23:32:00,
2013-03-22 18:42:00,37.0,30.0,29.92,ENE,60,10.0,-999.0,74,-99.99,,,-99.99,,2013-03-22 23:42:00,
2013-03-22 18:52:00,37.0,30.0,29.92,East,80,8.0,-999.0,74,-99.99,,,-99.99,,2013-03-22 23:52:00,
2013-03-22 19:02:00,37.0,30.0,29.92,East,80,8.0,-999.0,74,-99.99,,,-99.99,,2013-03-23 00:02:00,
2013-03-22 19:12:00,37.0,30.0,29.92,East,80,8.0,-999.0,74,-99.99,,,-99.99,,2013-03-23 00:12:00,
2013-03-22 19:23:00,37.0,30.0,29.93,ENE,70,5.0,-999.0,74,-99.99,,,-99.99,,2013-03-23 00:23:00,
2013-03-22 19:32:00,37.0,30.0,29.94,East,80,7.0,-999.0,74,-99.99,,,-99.99,,2013-03-23 00:32:00,
2013-03-22 19:42:00,37.0,30.0,29.94,East,80,7.0,-999.0,74,-99.99,,,-99.99,,2013-03-23 00:42:00,
2013-03-22 19:52:00,36.0,30.0,29.94,East,80,7.0,-999.0,80,-99.99,,,-99.99,,2013-03-23 00:52:00,
2013-03-22 20:03:00,36.0,30.0,29.94,East,80,7.0,-999.0,80,-99.99,,,-99.99,,2013-03-23 01:03:00,
2013-03-22 20:12:00,36.0,30.0,29.94,East,80,7.0,-999.0,80,-99.99,,,-99.99,,2013-03-23 01:12:00,
2013-03-22 20:22:00,36.0,30.0,29.94,ENE,70,8.0,-999.0,80,-99.99,,,-99.99,,2013-03-23 01:22:00,
2013-03-22 20:32:00,36.0,30.0,29.94,East,80,7.0,-999.0,80,-99.99,,,-99.99,,2013-03-23 01:32:00,
2013-03-22 20:43:00,36.0,30.0,29.94,East,80,7.0,-999.0,80,-99.99,,,-99.99,,2013-03-23 01:43:00,
2013-03-22 20:52:00,36.0,30.0,29.94,East,80,7.0,-999.0,80,-99.99,,,-99.99,,2013-03-23 01:52:00,
2013-03-22 21:02:00,36.0,30.0,29.94,East,80,7.0,-999.0,80,-99.99,,,-99.99,,2013-03-23 02:02:00,
2013-03-22 21:12:00,36.0,30.0,29.94,East,80,7.0,-999.0,80,-99.99,,,-99.99,,2013-03-23 02:12:00,
2013-03-22 21:22:00,36.0,30.0,29.97,ENE,60,9.0,-999.0,80,-99.99,,,-99.99,,2013-03-23 02:22:00,
2013-03-22 21:32:00,36.0,30.0,29.97,ENE,70,8.0,-999.0,80,-99.99,,,-99.99,,2013-03-23 02:32:00,
2013-03-22 21:42:00,36.0,30.0,29.97,ENE,70,8.0,-999.0,80,-99.99,,,-99.99,,2013-03-23 02:42:00,
2013-03-22 21:52:00,36.0,30.0,29.97,NE,50,8.0,-999.0,80,-99.99,,,-99.99,,2013-03-23 02:52:00,
2013-03-22 22:02:00,36.0,30.0,29.97,NE,50,8.0,-999.0,80,-99.99,,,-99.99,,2013-03-23 03:02:00,
2013-03-22 22:12:00,36.0,30.0,29.97,NE,50,8.0,-999.0,80,-99.99,,,-99.99,,2013-03-23 03:12:00,
2013-03-22 22:22:00,34.0,30.0,29.97,ENE,60,7.0,-999.0,86,-99.99,,,-99.99,,2013-03-23 03:22:00,
2013-03-22 22:33:00,34.0,30.0,29.98,NE,50,10.0,-999.0,86,-99.99,,,-99.99,,2013-03-23 03:33:00,
2013-03-22 22:43:00,34.0,30.0,29.98,NE,50,10.0,-999.0,86,-99.99,,,-99.99,,2013-03-23 03:43:00,
2013-03-22 22:53:00,34.0,30.0,29.98,ENE,60,8.0,-999.0,86,-99.99,,,-99.99,,2013-03-23 03:53:00,
2013-03-22 23:02:00,34.0,30.0,29.98,ENE,60,8.0,-999.0,86,-99.99,,,-99.99,,2013-03-23 04:02:00,
2013-03-22 23:12:00,34.0,30.0,29.98,ENE,60,8.0,-999.0,86,-99.99,,,-99.99,,2013-03-23 04:12:00,
2013-03-22 23:23:00,34.0,30.0,29.99,ENE,70,7.0,-999.0,86,-99.99,,,-99.99,,2013-03-23 04:23:00,
2013-03-22 23:32:00,34.0,30.0,29.99,East,90,10.0,-999.0,86,-99.99,,,-99.99,,2013-03-23 04:32:00,
2013-03-22 23:43:00,34.0,30.0,29.99,East,90,10.0,-999.0,86,-99.99,,,-99.99,,2013-03-23 04:43:00,
2013-03-22 23:53:00,34.0,30.0,29.99,East,90,12.0,-999.0,86,-99.99,,,-99.99,,2013-03-23 04:53:00,